Find the Weather for any City, State or Zip Code, or Country:


Mobile Weather


Questions? Comments?
Contact Greg


Winchester Trails
Subdivision Website


New! Stream Houston NOAA Weather Radio Here!


Current Maps

Tropical (Hurricane)

Temperature

Heat Index

Windchill

Humidity

Radar

Dew Point

Wind

Visibility

Visible Satellite

Satellite

Fronts

Jet Stream

Flight Rules


Forecast Maps

Temperature Forecast

Maximum Temperature Forecast

Minimum Temperature Forecast

Dewpoint Forecast

Prevalent Weather

12Hr Probability of Precip.

Sky Cover


Health Maps

Houston Pollen/Mold Report

UV Forecast

Air Quality

Peak Air Quality Index


Miscellaneous

NOAA Aviation Weather

NWS Houston/Galveston

National Weather Service (main page)

National Hurricane Center

Hurricane Archive

Harris Co. Flood Warning System

Harris Co. Storm Risk Calculator

U.S. Drought Monitor

TX Lake/Reservoir Data & Levels

Eric 'SciGuy' Berger Weather Blog

Dr. Jeff Masters Weather Blog

Houston Traffic

TxDOT Highway Conditions

Houston Electricity Outage Tracker

Galveston CruiseCam


This Station's Data

NOAA-Style Reports

Weather Detail

Daily Tabular Data


This Station's Position:
Lat. 29° 54' 14.18" N
Lon. 95° 34' 24.45" W
Elevation 112 ft (34.1 m)


Visit this station's partner in Cypress, 8sm west of here!


Weather Instruments:


Vantage Pro 2


Current Weather Conditions

This page refreshes automatically every 5 minutes and is best viewed at 1024x768 or higher resolution.
Powered by Ambient Weather Virtual Weather Station V14.01

Page last refreshed July 24, 2014 at 10:37 pm CDT (UTC -6)

Metric & Other Conversions for Current Observations
Current Temp28.3 °CHigh Temp34.6 °CLow Temp23.8 °C
Current Dew Point23.5 °CHeat Index32.1 °CWind Chill28.3 °C
Barometer1015.62 mbarBarometer761.7 mmHgBarometer14.73 psi
Density Altitude:  1621 ft (494.1 m)Pressure Altitude:  53 ft (16.2 m)
Barometer readings for a Standard Day (59.0 °F/15.0 °C @ sea level):  29.92" Hg, 1013.25 mbar, 757.83 mmHg, 14.70 psi


No Warnings, Watches, or Advisories for Harris and surrounding counties.


Local Radar Other Radar Graphics Local Satellite
Click for larger image WunderMap®

High Definition Radar (KHOU)

Regional Radar
Click for larger image
Radar & Satellite Graphics by Weather Underground




National Weather Service Forecast for: Jersey Village TX
Issued by: National Weather Service Houston, TX
Updated: 7:20 pm CDT Jul 24, 2014
 
Overnight

Partly Cloudy
Partly
Cloudy
Friday

Chance T-Storms. Chance for Measurable Precipitation 30%
Chance
T-Storms
Friday
Night

Partly Cloudy
Partly
Cloudy
Saturday

Mostly Sunny
Mostly
Sunny
Saturday
Night

Partly Cloudy
Partly
Cloudy
Sunday

Mostly Sunny
Mostly
Sunny
Sunday
Night

Partly Cloudy
Partly
Cloudy
Monday

Mostly Sunny
Mostly
Sunny
Monday
Night

Partly Cloudy
Partly
Cloudy
Lo 74 °F Hi 97 °F Lo 76 °F Hi 97 °F Lo 77 °F Hi 97 °F Lo 77 °F Hi 97 °F Lo 77 °F

Hazardous Weather Outlook
 

Overnight
 
Partly cloudy, with a low around 74. South wind around 5 mph.
Friday
 
A 30 percent chance of showers and thunderstorms, mainly after 1pm. Mostly sunny, with a high near 97. Heat index values as high as 105. South wind 5 to 10 mph.
Friday Night
 
Partly cloudy, with a low around 76. South wind 5 to 10 mph.
Saturday
 
Mostly sunny, with a high near 97. Heat index values as high as 105. South wind 5 to 10 mph.
Saturday Night
 
Partly cloudy, with a low around 77. South wind 5 to 10 mph.
Sunday
 
Mostly sunny, with a high near 97.
Sunday Night
 
Partly cloudy, with a low around 77.
Monday
 
Mostly sunny, with a high near 97.
Monday Night
 
Partly cloudy, with a low around 77.
Tuesday
 
A 20 percent chance of showers and thunderstorms. Partly sunny, with a high near 96.
Tuesday Night
 
A 20 percent chance of showers and thunderstorms. Mostly cloudy, with a low around 77.
Wednesday
 
A 30 percent chance of showers and thunderstorms. Partly sunny, with a high near 95.
Wednesday Night
 
A 20 percent chance of showers and thunderstorms. Mostly cloudy, with a low around 76.
Thursday
 
A 30 percent chance of showers and thunderstorms. Partly sunny, with a high near 93.

 

Forecast from NOAA-NWS for Jersey Village TX.

Follow this link for a current verbose area forecast discussion from the NWS.
Forecast Script by Saratoga Weather | Animated icons by Meteo Treviglio


Radar and Satellite Imagery


US Current Fronts w/Radar

Southcentral Infrared Satellite

US Jet Stream

Visible Satellite
The WunderMap is interactive - pan and zoom with your mouse.
WunderMap here requires Flash.
If accessing from an iOS device, you can download the Wundermap App from the App Store.
  
Click to go to WUnderground
Sea Surface Temp & Tropical System Map
Map Graphics by Weather Underground


Rainfall Information
Yesterday's Rain: 0.12 in
Last Rainfall:
Surrounding Area Rainfall Data
NOAA Avg. Rainfall For: Month to Date
(1971-2000)
Month to Date
(1981-2010)
Year to Date
(1971-2000)
Year to Date
(1981-2010)
Jersey Village: 3.06 in
(1.23 in)
3.65 in
(0.64 in)
27.45 in
(-4 in)
29 in
(-5.55 in)
Intercontinental (KIAH) 2.52 in 3.1 in 26.64 in 27.42 in
Hobby (KHOU) 3.52 in 3.8 in 29.38 in 29.18 in
NOTE:  The numbers in parenthesis under the Jersey Village data above indicate how far ahead (green) or behind (red) this station's rain total is compared to the NOAA 1971-2000 and 1981-2010 climate normals data for today's date (Jul 24).


Other Current Regional Observations (METARs)

(Ordered by straight-line statute mile distance from this weather station)

A Few More Observations/METARs of Interest to Greg


Weather Almanac

NOAA/NWS Daily Historical Weather Browser
Major SE Texas Weather Events

Records and Normals for Jul 24
Temperature Forecast Normal Record
High 93° 92° 102°
(2011)
Low 75°
72°
69°
(2000)
Highs & Lows Observed at This Station
  Today Yesterday For 7/2014 For 2014
High Temp 94.3°F at 3:47pm 94.2°F at 3:06pm 100.5°F on 7/21/14 100.5°F on 7/21/14
Low Temp 74.9°F at 5:37am 78.7°F at 11:58pm 71.3°F on 7/5/14 22.6°F on 1/7/14
High Dew Point 77.0°F at 2:29pm 78.2°F at 1:16pm 80.1°F on 7/21/14 80.1°F on 7/21/14
Low Dew Point 71.9°F at 2:53am 72.0°F at 11:41pm 66.8°F on 7/11/14 8.4°F on 1/6/14
High Humidity 92% at 5:06am 89% at 8:03am 95% on 7/6/14 98% on 2/5/14
Low Humidity 52% at 3:55pm 52% at 2:48pm 42% on 7/9/14 21% on 4/28/14
High Heat Index 106.8°F at 3:46pm 106.8°F at 3:03pm 117.7°F on 7/21/14 117.7°F on 7/21/14
High Barometer 29.92in at 10:59am 29.95in at 8:44am 30.08in on 7/4/14 30.60in on 1/6/14
Low Barometer 29.80in at 6:44pm 29.83in at 5:29pm 29.71in on 7/17/14 29.41in on 4/27/14
High Wind Speed 9mph at 11:12am 9mph at 11:26pm 24mph on 7/3/14 25mph on 3/16/14
High Wind Gust 9mph at 11:12am 12mph at 11:26pm 24mph on 7/3/14 25mph on 3/12/14
Low Wind Chill 74.9°F at 5:37am 78.7°F at 11:58pm 71.3°F on 7/5/14 11.5°F on 3/3/14

Sun & Moon
Sunrise:  6:38am Sunset:  8:22pm Moon Phase:
7%
Moonrise:  4:44am Moonset:  6:39pm
Star Chart...

 

Local Trend Graphs


MesoNet Local Weather Exchange® Network

Station ID

City 
(Click for Map Location)

Neighborhood 
(Click for History)
Last Update
(Date & Time)

Temp
 (°)

Dew
Point (°)
Humidity 
(%)
Wind 
(mph)
From
the
Gust
(mph) 
Pressure (in) Hourly
Rain (in)
KTXHOUST61 Houston Willow Point 07/24 22:28:59 83.3 32.0 16 0 SSW 0 29.88 0.00
KTXHOUST186 Houston Winchester Trails 07/24 22:30:03 83.2 74.0 75 0 SSW 0 29.99 0.00
KTXHOUST178 Houston Schroeder Oaks Village 07/24 22:29:50 84.9 75.0 73 1 SSW 3 29.94 0.00
KTXHOUST291 Houston Steeplechase 07/24 22:30:04 83.3 77.0 80 2 West 3 29.85 0.00
KTXHOUST216 Houston Cutten Green 07/24 22:29:47 84.8 76.0 74 2 South 5 29.94 0.00
KTXHOUST232 Houston Rolling Fork 07/24 22:25:36 83.4 75.0 76 0 SSE 0 29.95 0.00
KTXHOUST349 Houston Champions Crossing 07/24 22:15:01 84.2 75.0 73 3 WSW 0 29.79 0.00
KTXHOUST218 Houston Woodland Trails West 07/24 22:29:57 82.8 76.0 80 0 SSE 4 29.96 0.00
KTXHOUST121 Houston Norchester, K5WH 07/24 22:27:25 84.0 75.0 75 3 ESE 6 29.94 0.00
MUR202 Houston MesoWest MELNDY TX US UPR 07/24 19:30:00 94.0 0.0 0 0

North 0 0.00 0.00
KTXHOUST170 Houston Champions Park 07/24 22:28:33 84.9 75.0 71 0 SSE 0 29.95 0.00
KTXTEXAS12 Texas FM 1960 07/24 22:22:35 85.5 75.0 70 3 SE 0 29.93 0.00
KTXHOUST342 Houston Lakewood Forest at Cypresswood 07/24 22:29:44 82.0 73.0 75 0 South 1 29.80 0.00
KTXHOUST233 Houston Woods of Wimbledon 07/24 22:29:52 84.9 73.0 68 0 SSE 0 29.97 0.00
KTXHOUST352 Houston Vila Toscana 07/24 22:29:47 83.3 74.0 75 0 SE 2 29.93 0.00
KTXHOUST169 Houston Lakewood Forest 07/24 22:30:05 82.9 72.0 70 0 South 0 29.96 0.00
KTXHOUST261 Cypress Heatherwood Village 07/24 22:26:33 82.2 74.0 75 0 South 0 29.41 0.00
KTXSPRIN88 Spring Champions Woods 07/24 22:21:22 83.7 75.0 75 0 South 0 29.66 0.00
KTXCYPRE11 Cypress Weiser Airpark 07/24 22:30:00 81.6 71.0 71 0 South 0 29.99 0.00
KTXCYPRE4 Cypress Moore Weather 07/24 22:25:45 81.8 74.0 77 0 ESE 0 29.96 0.00
KTXCYPRE42 Cypress Great Oaks 07/24 22:25:26 80.3 75.0 83 0 WSW 0 29.95 0.00
KTXHOUST271 Houston Middlegate Village 07/24 22:30:01 82.2 74.0 75 0 WSW 0 29.78 0.00
KTXCYPRE5 Cypress NW Houston (Wincrest Falls) 07/24 22:30:01 82.0 74.0 76 0 ESE 0 29.89 0.00
KTXCYPRE52 Cypress PWS KTXCYPRE52 07/24 22:30:01 83.6 74.0 73 1 South 4 29.47 0.00
KTXSPRIN9 Spring Wimbledon 07/24 22:30:01 84.0 72.0 68 0 SSE 0 29.87 0.00
KTXTOMBA9 Tomball Spring Cypress/Eldridge 07/24 22:29:38 83.2 74.0 75 2 ESE 5 29.98 0.00
KTXHOUST29 Houston Concord Colony - K5EBQ 07/24 22:25:45 82.0 76.0 82 0 SSW 0 29.98 0.00
KTXSPRIN83 Spring Memorial NorthWest 07/24 22:30:01 82.6 74.0 76 0 West 3 29.59 0.00
KTXHOUST265 Houston Spring Shadows 07/24 22:29:12 83.3 74.0 73 0 SSW 4 29.97 0.00
KTXHOUST159 Houston Copper Village 07/24 22:30:06 81.9 76.0 81 0 South 3 29.89 0.00
KTXSPRIN5 Spring Memorial Northwest 07/24 22:30:06 84.1 73.0 69 0 SE 0 29.89 0.00
KTXHOUST200 Houston Binglewood 07/24 22:30:06 82.8 74.0 75 0 SW 0 30.00 0.00
KTXHOUST329 Houston Spring Shadows Blk 1 07/24 22:30:06 81.1 72.0 75 1 SE 1 29.97 0.00
KDWH Houston Hooks Official Station 07/24 21:53:00 84.0 74.0 72 4 Variable --- 29.97 ---
KIAH Houston Intercontinental Official Station 07/24 21:53:00 83.0 73.0 72 5 South --- 29.97 ---
KMCJ Houston / Dunn Helistop Official Station 07/24 22:15:00 82.0 72.0 70 5 SSW --- 29.96 ---
KSGR Houston Hull Official Station 07/24 21:53:00 81.0 74.0 79 4 SSE --- 29.98 ---
KTXCYPRE54 Cypress Canyon Lakes West 07/24 22:29:53 82.6 73.0 72 4 SSE 10 30.06 0.00
KTXHOUST197 Cypress Canyon Lakes West 07/24 22:30:03 82.2 74.0 77 1 ESE 5 29.90 0.00
KTXCYPRE65 Cypress Heritage Towne Lake 81.5 81.5 74.0 79 1 SE 1 29.95 0.00